Location: Colonia Mina de C?rbuni
(46.1667°N, 22.7167°E)
Time: 00:54:26
(UTC+00:00)

Lacrosse 5 - Pass Details

Date: 04 February 2023
Orbit: 714 x 724 km, 57.0° (Epoch: 09 March)

Event Time Altitude Azimuth Distance (km) Brightness Sun altitude
Rises 19:19:47 0° 286° (WNW) 3,140 6.1 -38.4°
Reaches altitude 10° 19:22:35 10° 300° (WNW) 2,220 5.1 -38.8°
Enters shadow 19:24:05 17° 313° (NW) 1,814 4.4 -39.1°
